World > North America > United States > Wisconsin

Richland Center, Wisconsin Regional Weather

Lat: 43.34N, Lon: 90.38W
Wx Zone: WIZ055
Warning FLW WEATHER ALERT - (More Info. Click Here) Warning
Feedback

Richland Center, WI Regional Weather

Expires:201907212200;;423826
ASUS43 KMKX 212121
RWRWI 

WISCONSIN REGIONAL WEATHER ROUNDUP
NATIONAL WEATHER SERVICE MILWAUKEE/SULLIVAN WI
400 PM CDT SUN JUL 21 2019

NOTE: "FAIR" INDICATES FEW OR NO CLOUDS BELOW 12,000 FEET WITH NO
SIGNIFICANT WEATHER AND/OR OBSTRUCTIONS TO VISIBILITY.


WIZ032>034-041-042-053>061-212200-
SOUTHWEST WISCONSIN
  
CITY           SKY/WX    TMP DP  RH WIND       PRES   REMARKS
LA CROSSE      FAIR      84  54  35 NW14G21   30.02F HX  83           
SPARTA         FAIR      79  51  37 NW10      30.04S                  
VIROQUA        FAIR      76  60  56 N9        30.05S                  
BOSCOBEL       FAIR      84  59  42 NE9       30.01S HX  84           
PRAIRIE DU CHI FAIR      81  57  43 N10       30.00S HX  81           
PLATTEVILLE    FAIR      79  62  56 N13G18    30.01S HX  80           
$$


SKY/WX - Weather  TMP - Temperature  DP - Dew Point  RH - Relative Humidity
WIND - Wind Direction/Speed PRES - Barometric Pressure VSB - Visibility
WCI - Wind Chill Index E13G22 Wind - East Wind 13 mph/Gusts of 22 mph